Weather reports worldwide

Advertisment
Gibraltar, United Kingdom (8495): temperature & dewpoint: 06.12.2018 00:00:00 - 12.12.2018 00:00:00 (CET)Gibraltar, United Kingdom (8495): wind speed: 06.12.2018 00:00:00 - 12.12.2018 00:00:00 (CET)Gibraltar, United Kingdom (8495): wind direction: 06.12.2018 00:00:00 - 12.12.2018 00:00:00 (CET)Gibraltar, United Kingdom (8495): reduced air pressure: 06.12.2018 00:00:00 - 12.12.2018 00:00:00 (CET)Gibraltar, United Kingdom (8495): visibility: 06.12.2018 00:00:00 - 12.12.2018 00:00:00 (CET)
Date & Time tt [°C] td [°C] ff [km/h] ff [kn] dd ppp [hPa] vv [km]
12.12.2018 00:00:00 16,9 13,4 13 7 SW 1023,7 13
11.12.2018 23:00:00 16,9 13,3 15 8 WSW 1023,9 13
11.12.2018 22:00:00 16,9 13,4 13 7 SSW 1023,9 10
11.12.2018 21:00:00 16,7 13,6 16 9 SW 1023,9 9
11.12.2018 20:00:00 17,0 13,3 11 6 SW 1023,9 10
11.12.2018 19:00:00 17,0 13,6 11 6 SW 1023,6 10
11.12.2018 18:00:00 17,2 13,0 15 8 SW 1023,5 12
11.12.2018 17:00:00 17,3 12,5 9 5 SW 1023,4 10
11.12.2018 16:00:00 17,2 11,8 8 4 SW 1023,3 10
11.12.2018 15:00:00 17,0 11,7 5 3 SSW 1023,9 12
11.12.2018 14:00:00 16,9 11,4 4 2 E 1024,5 15
11.12.2018 13:00:00 16,8 12,7 4 2 ENE 1025,2 15
11.12.2018 12:00:00 16,4 12,0 4 2 NE 1025,9 12
11.12.2018 11:00:00 16,0 12,1 4 2 NNE 1025,7 12
11.12.2018 10:00:00 15,6 11,9 4 2 NNE 1025,3 15
11.12.2018 09:00:00 15,4 12,0 9 5 NNE 1024,8 12
11.12.2018 08:00:00 16,0 11,9 13 7 E 1024,5 12
11.12.2018 07:00:00 16,0 11,4 11 6 ESE 1024,3 12
11.12.2018 06:00:00 15,9 11,9 18 10 E 1024,0 13
11.12.2018 05:00:00 15,8 13,1 18 10 NE 1024,5 13
11.12.2018 04:00:00 15,9 13,8 16 9 E 1024,7 12
11.12.2018 03:00:00 16,2 13,7 21 11 E 1024,9 13
11.12.2018 02:00:00 16,1 12,8 24 13 E 1025,1 13
11.12.2018 01:00:00 16,0 14,0 24 13 E 1025,6 13
11.12.2018 00:00:00 15,8 13,6 29 16 E 1025,8 13
10.12.2018 23:00:00 15,9 13,7 24 13 E 1025,9 12
10.12.2018 22:00:00 16,1 13,6 21 11 E 1025,8 12
10.12.2018 21:00:00 16,1 13,9 18 10 E 1025,7 12
10.12.2018 20:00:00 16,3 13,7 15 8 E 1025,5 13
10.12.2018 19:00:00 16,7 11,8 13 7 E 1025,3 14
10.12.2018 18:00:00 17,3 10,7 16 9 E 1025,3 10
10.12.2018 17:00:00 17,5 12,1 13 7 E 1025,3 18
10.12.2018 16:00:00 18,1 10,7 13 7 E 1025,3 15
10.12.2018 15:00:00 16,3 14,0 11 6 E 1025,8 15
10.12.2018 14:00:00 15,9 13,7 9 5 NE 1026,8 15
10.12.2018 13:00:00 15,5 13,5 15 8 E 1027,4 10
10.12.2018 12:00:00 15,0 13,5 13 7 ENE 1028,3 10
10.12.2018 11:00:00 14,6 13,3 11 6 NE 1028,2 8
10.12.2018 10:00:00 14,3 13,4 11 6 NE 1027,4 6
10.12.2018 09:00:00 13,5 12,8 11 6 NNE 1027,0 6
10.12.2018 08:00:00 13,5 13,2 11 6 NE 1026,7 6
10.12.2018 07:00:00 11,9 11,5 4 2 N 1026,7 6
10.12.2018 06:00:00 12,3 11,9 4 2 WSW 1026,7 4,1
10.12.2018 05:00:00 12,0 11,5 4 2 E 1026,7 7
10.12.2018 04:00:00 12,5 11,9 4 2 W 1027,2 8
10.12.2018 03:00:00 12,8 12,4 4 2 SW 1027,6 6
10.12.2018 02:00:00 13,3 12,8 4 2 SW 1027,8 4,3
10.12.2018 01:00:00 13,9 13,3 4 2 SW 1028,3 4,7
10.12.2018 00:00:00 14,1 13,6 2 1 ENE 1028,4 3,9
09.12.2018 23:00:00 13,9 13,0 9 5 NE 1028,5 3,9
09.12.2018 22:00:00 14,6 13,6 9 5 NE 1028,6 5
09.12.2018 21:00:00 15,1 13,6 8 4 NE 1028,4 5
09.12.2018 20:00:00 15,8 13,8 11 6 E 1028,2 12
09.12.2018 19:00:00 15,9 13,9 11 6 E 1027,9 15
09.12.2018 18:00:00 16,3 13,5 13 7 E 1027,8 15
09.12.2018 17:00:00 16,9 13,4 16 9 E 1027,8 15
09.12.2018 16:00:00 17,2 13,4 18 10 E 1027,7 12
09.12.2018 15:00:00 17,2 13,0 18 10 E 1027,9 15
09.12.2018 14:00:00 17,3 13,4 21 11 E 1028,6 15
09.12.2018 13:00:00 16,7 13,7 21 11 E 1029,5 10
09.12.2018 12:00:00 16,6 13,8 22 12 ENE 1030,1 10
09.12.2018 11:00:00 16,7 13,8 21 11 E 1030,2 11
09.12.2018 10:00:00 16,2 13,7 21 11 E 1029,8 10
09.12.2018 09:00:00 15,7 13,9 22 12 ENE 1029,4 10
09.12.2018 08:00:00 15,8 13,7 24 13 ENE 1029,2 20
09.12.2018 07:00:00 16,0 13,5 21 11 ENE 1029,0 20
09.12.2018 06:00:00 16,0 13,5 28 15 E 1028,6 10
09.12.2018 05:00:00 16,0 13,4 24 13 ENE 1028,9 11
09.12.2018 04:00:00 15,7 13,6 21 11 ENE 1029,3 10
09.12.2018 03:00:00 15,8 13,7 24 13 E 1029,0 10
09.12.2018 02:00:00 15,2 13,7 13 7 ENE 1029,0 9
09.12.2018 01:00:00 15,6 14,0 21 11 E 1029,0 10
09.12.2018 00:00:00 15,8 14,1 24 13 E 1029,1 10
08.12.2018 23:00:00 15,9 14,4 18 10 ENE 1029,0 8
08.12.2018 22:00:00 16,1 14,2 21 11 E 1028,7 10
08.12.2018 21:00:00 16,3 14,2 21 11 E 1028,2 10
08.12.2018 20:00:00 16,1 14,7 15 8 E 1028,1 15
08.12.2018 19:00:00 16,4 14,6 13 7 NE 1027,6 30
08.12.2018 18:00:00 17,2 14,2 16 9 NNE 1026,8 30
08.12.2018 17:00:00 19,0 12,8 11 6 SSW 1026,2 30
08.12.2018 16:00:00 19,5 12,3 18 10 SSW 1025,7 40
08.12.2018 15:00:00 19,6 11,5 18 10 SW 1025,4 40
08.12.2018 14:00:00 19,5 11,1 18 10 SW 1025,8 40
08.12.2018 13:00:00 19,2 11,7 22 12 SSW 1026,4 40
08.12.2018 12:00:00 19,9 9,8 22 12 SW 1026,9 40
08.12.2018 11:00:00 18,6 9,0 15 8 SW 1027,0 40
08.12.2018 10:00:00 17,6 8,1 13 7 SW 1026,7 10
08.12.2018 09:00:00 16,6 7,9 16 9 SW 1026,2 40
08.12.2018 08:00:00 15,7 7,5 18 10 SW 1026,0 40
08.12.2018 07:00:00 16,1 6,8 15 8 SW 1025,7 20
08.12.2018 06:00:00 14,9 8,2 24 13 SW 1025,5 15
08.12.2018 05:00:00 14,8 8,7 22 12 SW 1025,7 10
08.12.2018 04:00:00 15,0 9,6 22 12 SW 1026,3 14
08.12.2018 03:00:00 16,1 9,3 21 11 SW 1026,4 10
08.12.2018 02:00:00 16,6 9,0 21 11 SW 1026,6 15
08.12.2018 01:00:00 16,6 10,3 24 13 SW 1026,9 13
08.12.2018 00:00:00 16,3 10,4 24 13 SW 1027,1 10
07.12.2018 23:00:00 17,1 11,2 22 12 SW 1027,2 13
07.12.2018 22:00:00 16,8 11,7 18 10 SW 1027,2 10
07.12.2018 21:00:00 17,2 11,9 18 10 SW 1027,2 10
07.12.2018 20:00:00 16,9 13,3 15 8 SW 1027,2 10
07.12.2018 19:00:00 15,7 14,0 4 2 SSE 1026,7 10
07.12.2018 18:00:00 16,5 13,6 4 2 SSW 1026,6 15
07.12.2018 17:00:00 17,2 14,0 8 4 W 1026,8 10
07.12.2018 16:00:00 15,7 12,6 8 4 E 1027,0 15
07.12.2018 15:00:00 16,0 12,2 11 6 E 1027,3 15
07.12.2018 14:00:00 15,5 11,9 4 2 E 1028,0 15
07.12.2018 13:00:00 14,9 12,1 5 3 E 1028,4 9
07.12.2018 12:00:00 14,1 12,0 8 4 WNW 1029,1 8
07.12.2018 11:00:00 13,6 11,7 4 2 W 1028,8 8
07.12.2018 10:00:00 13,7 11,8 4 2 N 1028,5 7
07.12.2018 09:00:00 14,0 12,0 4 2 NW 1027,8 6
07.12.2018 08:00:00 13,8 12,7 5 3 WNW 1027,5 7
07.12.2018 07:00:00 13,8 12,8 5 3 WNW 1027,1 6
07.12.2018 06:00:00 13,9 13,1 5 3 NW 1027,0 5
07.12.2018 05:00:00 14,4 12,8 4 2 E 1027,0 11
07.12.2018 04:00:00 14,7 13,1 4 2 NE 1026,9 9
07.12.2018 03:00:00 14,7 13,2 5 3 ENE 1026,8 10
07.12.2018 02:00:00 14,6 14,0 5 3 ENE 1026,8 10
07.12.2018 01:00:00 14,7 14,5 8 4 NE 1027,2 3,2
07.12.2018 00:00:00 14,6 14,2 11 6 NE 1027,3 3,1
06.12.2018 23:00:00 14,5 14,1 13 7 NE 1027,1 0,4
06.12.2018 22:00:00 14,6 14,0 9 5 NE 1026,8 4,9
06.12.2018 21:00:00 14,6 14,0 8 4 NE 1026,5 4,9
06.12.2018 20:00:00 14,7 14,2 4 2 ENE 1026,2 3,0
06.12.2018 19:00:00 14,3 13,8 4 2 E 1025,8 2,0
06.12.2018 18:00:00 14,4 13,8 5 3 E 1025,6 0,5
06.12.2018 17:00:00 16,0 13,6 9 5 E 1025,3 0,8
06.12.2018 16:00:00 16,6 13,3 5 3 ESE 1025,2 1,5
06.12.2018 15:00:00 16,2 13,6 13 7 E 1025,6 0,5
06.12.2018 14:00:00 16,6 13,7 11 6 E 1026,3 6
06.12.2018 13:00:00 16,4 13,1 8 4 ENE 1026,9 40
06.12.2018 12:00:00 16,4 12,8 9 5 ESE 1027,4 40
06.12.2018 11:00:00 14,7 11,0 2 1 NE 1027,5 30
06.12.2018 10:00:00 13,0 10,5 4 2 WNW 1027,0 40
06.12.2018 09:00:00 12,1 10,9 4 2 WSW 1026,3 40
06.12.2018 08:00:00 11,9 10,7 8 4 WSW 1026,0 30
06.12.2018 07:00:00 11,9 10,7 8 4 W 1025,5 15
06.12.2018 06:00:00 12,3 11,1 9 5 WSW 1025,6 12
06.12.2018 05:00:00 12,3 10,9 11 6 W 1025,8 12
06.12.2018 04:00:00 12,5 11,6 8 4 WSW 1025,9 10
06.12.2018 03:00:00 12,6 11,3 9 5 W 1025,8 12
06.12.2018 02:00:00 12,7 11,8 4 2 W 1026,1 6
06.12.2018 01:00:00 13,2 12,1 2 1 WSW 1026,5 10
06.12.2018 00:00:00 13,5 12,6 2 1 E 1026,7 5

tt = temperature
td = dewpoint
ff = wind speed
dd = wind direction
ppp = reduced air pressure
vv = visibility

Next stations